Temperature
7 6 6 6 7 8 8 7 7 7 7 7 6 6 7 7 7 7 7 8 8 9 10 10 10 10 10 10 10 10 10 10 10 10 9 9 9 9 9 9 9 9 8 8
5 5 6 7 7 7 7 7 7 7 7 7 6 6 6 6 6 7 7 7 8 9 9 9 9 9 10 10 10 9 10 9 9 9 9 9 9 9 9 8 8 8 8 8
6 6 6 7 6 7 7 6 6 7 6 6 6 6 7 6 6 7 7 8 8 8 9 9 9 9 9 9 9 9 9 9 9 9 8 8 8 8 8 8 8 8 7 7
5 5 6 6 6 6 6 6 6 6 6 5 6 6 6 6 6 6 6 7 7 8 8 9 9 9 9 9 9 9 9 9 8 8 8 8 8 8 8 7 7 7 7 7
4 5 5 6 6 6 6 6 6 5 5 4 4 5 5 5 6 6 6 7 7 7 8 8 8 9 9 8 8 8 8 8 8 8 7 7 7 7 7 7 7 6 6 6
4 5 5 5 5 5 5 5 4 3 3 4 4 4 5 5 6 6 6 6 7 7 7 7 8 8 8 8 8 8 7 7 7 7 7 7 7 6 6 6 6 6 6 6
4 5 5 5 5 5 5 4 4 4 3 4 4 4 5 5 5 5 5 6 6 6 7 7 7 7 7 7 7 7 7 7 7 6 6 6 6 6 6 6 6 5 5 5
4 4 4 4 5 4 4 5 4 5 4 4 3 4 4 4 4 5 5 5 6 6 6 6 6 7 7 7 7 7 6 6 6 6 6 6 5 5 5 5 5 5 5 5
3 4 4 4 4 5 4 3 4 3 2 3 3 3 4 4 4 4 4 4 5 5 6 6 6 6 6 6 6 6 6 6 5 5 5 5 5 5 5 5 4 4 4 4
3 3 3 3 4 4 4 3 2 2 3 4 4 4 4 4 4 3 3 3 4 5 5 5 5 5 6 6 5 5 5 5 5 5 5 5 4 4 4 4 4 4 4 4
3 2 2 3 3 3 3 3 2 1 2 3 4 5 4 4 3 3 3 3 4 4 4 5 5 5 5 5 5 5 5 5 5 4 4 4 4 4 4 4 4 4 3 3
2 1 1 2 2 2 2 2 2 2 2 1 2 4 4 3 3 3 3 3 4 4 4 4 4 4 4 4 4 4 4 4 4 4 4 4 3 3 3 3 3 3 3 3
2 1 2 2 2 1 1 1 1 0 0 -0 1 4 3 2 2 3 3 3 3 3 3 3 3 3 3 3 3 3 3 3 3 3 3 3 3 3 3 3 3 2 2 2
2 0 1 3 3 1 1 1 0 0 0 0 1 2 3 2 2 2 2 3 3 3 3 3 3 3 3 3 3 3 3 3 2 2 2 2 2 2 2 2 2 2 2 1
1 0 -0 0 1 1 1 1 -0 0 1 1 2 1 2 2 1 2 2 2 2 2 2 2 2 2 2 2 2 2 2 2 2 2 2 2 1 1 1 1 1 1 1 1
-1 -0 -1 -0 0 -0 0 0 0 0 0 0 1 1 1 1 1 1 2 2 1 1 1 1 1 2 2 1 1 1 1 1 1 1 1 1 1 1 1 1 1 1 1 0
-2 -1 -0 -0 -1 0 0 0 0 -0 -0 -0 1 2 1 0 0 1 1 1 1 1 1 1 1 1 1 1 1 1 1 1 1 0 0 0 0 0 0 0 0 0 0 -0
-2 -2 -2 -1 -1 1 2 0 0 0 -0 -1 0 0 0 0 1 1 2 1 1 1 1 1 1 1 1 0 0 0 0 0 0 0 0 -0 -0 -0 -0 -0 -0 -0 -0 -0
-2 -2 -2 -2 -1 -0 1 -0 -1 -0 0 -0 -1 -1 -0 -0 -0 0 1 1 1 1 1 1 1 0 0 0 0 -0 -0 -0 -0 -0 -0 -0 -1 -1 -1 -1 -1 -1 -1 -1
-3 -3 -2 -3 -1 0 1 -0 -1 0 0 -0 -1 -1 -1 -1 -1 -0 1 1 0 0 0 0 0 -0 -0 -0 -0 -1 -1 -1 -1 -1 -1 -1 -1 -1 -1 -1 -1 -1 -1 -1
-3 -3 -3 -3 -2 -1 -1 -1 -0 0 1 -0 -0 -1 -1 -1 -0 0 0 0 -0 -0 -0 -0 -1 -1 -1 -1 -1 -1 -1 -1 -1 -1 -1 -1 -2 -2 -2 -2 -2 -1 -2 -2
-3 -3 -4 -3 -2 -1 -2 -2 -1 -0 -0 -0 -0 -0 -0 -0 -0 -0 -0 -0 -1 -1 -1 -1 -1 -1 -2 -2 -2 -2 -2 -2 -2 -2 -2 -2 -2 -2 -2 -2 -2 -2 -2 -2
-3 -3 -3 -2 -1 -2 -2 -1 -1 -0 -0 -0 -0 -0 -0 -1 -1 -1 -1 -1 -1 -1 -1 -2 -2 -2 -2 -2 -2 -3 -2 -2 -2 -2 -2 -2 -2 -2 -3 -3 -3 -3 -3 -3
-5 -5 -4 -4 -3 -3 -2 -1 -1 -1 -1 -1 -1 -1 -1 -1 -1 -1 -2 -2 -2 -2 -2 -2 -2 -2 -3 -3 -3 -3 -3 -3 -3 -3 -3 -3 -3 -3 -3 -3 -3 -3 -3 -3
-4 -6 -5 -4 -4 -3 -2 -2 -1 -1 -1 -1 -1 -1 -1 -1 -2 -2 -2 -2 -2 -2 -3 -3 -3 -3 -3 -3 -3 -4 -4 -4 -4 -4 -3 -3 -3 -3 -3 -3 -4 -4 -4 -4
-6 -5 -4 -3 -3 -4 -2 -1 -1 -2 -2 -2 -2 -2 -2 -2 -2 -2 -2 -2 -3 -3 -3 -3 -3 -3 -4 -4 -4 -4 -4 -4 -4 -4 -4 -4 -4 -4 -4 -4 -4 -4 -4 -4
Wind_Speed
3 3 4 7 7 3 3 3 4 4 2 1 5 8 10 6 3 5 5 4 4 5 3 1 1 1 2 2 2 3 3 2 2 1 1 1 0 0 1 2 2 1 1 1
3 3 5 2 3 2 2 2 3 3 2 1 4 9 8 6 5 6 6 6 6 4 2 2 1 1 2 3 2 3 2 2 2 1 1 1 1 1 1 1 2 1 1 1
4 3 1 3 2 3 4 6 5 3 3 2 3 7 5 4 3 4 4 5 5 6 5 3 2 2 2 2 2 2 2 2 2 1 2 2 2 2 1 0 1 2 1 1
2 3 1 1 3 4 5 4 4 2 0 3 1 5 7 4 5 4 4 3 4 4 4 3 3 2 2 2 2 2 2 2 2 2 2 2 2 1 1 1 1 2 2 1
3 1 2 3 4 4 3 1 2 2 2 3 2 3 8 3 5 6 5 4 4 3 4 4 4 3 2 2 2 2 2 2 2 2 2 2 1 1 0 0 1 1 2 2
2 1 2 3 1 2 3 3 3 3 2 4 6 5 7 5 6 6 4 3 3 2 3 3 2 2 1 1 1 2 2 1 1 2 2 2 2 1 1 1 1 2 1 2
3 3 1 1 2 1 3 3 2 3 2 6 3 5 9 6 5 5 6 4 1 1 1 1 1 1 1 1 1 1 2 1 1 1 1 2 2 2 3 2 2 2 1 2
2 4 3 2 3 4 4 6 6 5 5 4 2 7 7 4 3 2 2 2 1 0 1 1 1 1 1 0 0 1 1 1 1 1 1 1 1 2 2 2 2 2 2 2
4 5 1 1 1 5 4 4 4 4 1 3 5 6 7 2 2 2 1 1 0 1 1 0 0 1 1 1 1 1 1 1 1 1 1 1 1 1 2 2 2 2 2 2
4 3 2 1 2 1 3 6 4 4 4 5 5 5 5 3 2 2 1 1 2 1 1 1 0 0 0 0 0 0 1 1 1 1 1 1 2 2 2 1 2 2 2 1
3 3 1 0 4 5 3 3 3 3 4 4 4 7 4 5 4 3 2 2 2 2 1 1 1 1 0 1 1 1 1 1 1 1 1 1 1 1 1 1 2 2 1 1
2 3 2 4 2 2 4 5 6 5 4 4 4 7 2 3 2 2 2 2 2 2 1 1 0 1 1 1 1 1 1 1 1 1 1 1 1 1 1 1 2 1 1 1
3 4 0 3 2 1 2 4 5 4 4 5 5 7 2 2 2 1 1 2 2 2 1 1 1 1 1 1 1 1 1 2 2 1 1 1 1 1 2 2 2 1 1 1
2 3 6 8 5 4 4 5 6 6 5 6 9 9 7 4 3 3 2 2 2 1 1 2 2 2 2 2 1 2 2 2 1 1 1 2 2 3 3 2 2 1 1 1
3 3 4 4 3 3 5 7 8 10 9 10 9 10 10 6 4 4 2 2 1 1 2 2 2 2 2 2 2 2 3 2 2 1 2 3 3 3 2 2 2 1 1 2
2 3 2 3 3 3 5 8 10 10 8 9 8 10 8 5 2 2 3 2 2 2 3 3 3 3 3 3 3 3 3 3 2 2 3 3 2 2 2 2 2 2 2 2
3 4 3 4 2 2 8 9 10 7 6 7 10 10 3 2 3 5 4 3 4 3 3 3 3 3 4 4 3 3 3 3 2 2 3 2 2 2 2 2 2 2 2 2
5 4 3 1 1 7 6 2 6 7 6 7 6 4 4 4 4 4 4 4 4 3 3 4 4 4 3 3 3 3 2 2 2 2 3 2 2 3 3 2 2 3 2 2
5 6 3 3 4 8 6 2 4 5 6 5 7 6 3 1 2 3 3 3 3 3 3 4 4 3 3 3 3 2 2 2 2 3 3 3 3 3 3 3 3 3 2 2
2 4 4 3 4 7 5 2 2 3 4 3 4 5 3 2 1 5 2 1 2 2 2 2 2 2 3 3 2 2 3 3 4 4 3 3 2 3 3 3 3 2 2 2
3 3 5 5 6 7 5 1 3 4 6 3 3 4 4 4 5 3 1 1 2 2 2 2 1 2 3 3 2 2 3 5 5 4 3 3 2 2 3 3 2 1 1 1
7 6 6 5 5 8 2 5 5 5 1 0 2 3 3 4 3 2 2 2 2 2 2 2 2 3 3 2 2 3 5 5 4 3 3 3 3 3 2 1 2 1 1 1
6 6 5 8 7 3 4 4 3 1 1 2 2 2 2 2 3 2 2 2 3 2 2 2 2 3 4 3 2 4 5 4 3 2 3 3 3 2 2 2 2 1 1 2
3 1 3 4 6 4 3 2 2 2 3 3 2 2 2 3 3 3 3 3 3 3 3 2 2 3 5 4 4 4 5 3 2 2 3 2 2 2 2 2 2 2 2 3
4 4 3 5 5 4 4 4 4 3 2 2 1 2 3 4 4 4 3 4 3 3 3 3 3 4 5 5 4 4 4 2 2 3 3 2 2 2 2 2 2 3 4 4
5 6 6 6 5 4 5 3 3 3 3 3 3 3 3 4 5 4 4 4 4 4 3 3 4 4 5 5 5 4 3 2 2 3 3 2 2 2 2 2 2 4 4 5
Wind_Direction
48 87 210 214 204 195 162 181 238 262 301 236 241 259 271 281 261 252 250 239 228 233 245 212 186 173 147 132 134 137 132 130 120 111 124 122 126 186 52 32 42 40 61 111
57 254 246 192 170 163 175 213 252 285 330 259 277 270 264 252 235 230 227 230 229 236 246 222 171 156 166 171 170 157 156 145 144 165 171 162 143 167 153 44 18 4 2 355
181 245 241 157 160 179 214 212 223 242 329 355 326 293 265 265 248 245 233 229 230 221 225 223 199 189 182 179 183 175 172 158 147 130 101 86 76 60 33 300 297 331 321 313
230 277 212 171 206 179 237 225 203 206 275 285 358 283 273 264 271 250 247 240 242 238 225 215 204 200 195 194 165 155 152 148 151 142 141 139 157 198 228 263 261 309 328 321
241 233 175 212 228 186 207 135 155 182 185 291 258 237 281 271 256 250 246 242 245 238 221 215 213 207 197 177 149 142 130 135 137 138 149 149 160 197 225 261 285 301 319 320
246 247 203 210 224 175 152 75 62 58 93 259 231 205 272 242 233 241 240 251 252 248 240 228 209 167 144 104 98 116 126 127 123 135 148 165 179 183 186 276 279 297 299 303
291 265 256 145 111 68 116 107 26 333 303 247 210 213 251 255 248 222 226 243 266 243 224 212 176 138 124 106 123 139 134 129 127 142 169 193 210 207 212 233 240 264 286 292
211 269 231 198 184 185 187 166 173 207 231 273 240 233 253 271 291 264 213 209 203 262 246 221 203 174 170 174 151 147 148 154 147 183 222 224 230 225 235 239 237 240 250 263
196 244 309 218 225 153 157 194 176 142 141 270 259 276 293 290 350 17 36 83 254 283 309 300 163 130 164 178 198 191 178 188 207 231 245 256 256 250 251 252 237 244 253 270
174 226 264 272 79 29 158 148 123 152 186 248 273 262 246 247 269 311 328 297 276 310 347 351 9 23 313 205 183 106 133 211 233 243 246 259 267 258 239 232 237 247 255 274
155 171 272 147 192 193 154 152 147 149 169 186 251 263 229 214 216 217 240 254 262 279 290 303 309 332 26 45 60 30 11 337 287 263 270 287 284 275 251 233 245 241 238 250
159 142 231 246 254 211 190 185 163 173 221 198 215 264 290 211 216 206 240 273 289 282 274 267 320 13 20 12 10 359 335 306 292 288 268 266 275 279 263 262 263 255 241 250
153 140 89 330 319 242 211 196 177 149 139 179 205 259 325 357 334 274 241 280 291 316 347 5 0 352 340 326 328 318 304 283 291 298 305 295 292 286 275 274 274 263 248 253
144 165 192 212 229 197 214 210 187 166 192 217 230 254 286 290 293 302 294 287 281 301 326 340 333 320 318 315 305 298 297 289 282 285 287 284 274 265 258 263 271 270 262 256
120 202 225 252 262 212 221 220 202 206 209 215 236 239 257 256 248 257 259 279 293 312 323 324 320 311 310 314 310 300 298 301 294 279 276 271 276 269 260 263 262 262 262 260
133 183 204 271 260 237 254 239 222 226 226 233 250 262 255 260 250 263 253 246 255 278 297 310 315 313 303 297 295 298 297 299 296 280 275 281 285 281 264 259 254 254 263 267
174 160 177 250 284 320 265 230 210 213 212 200 229 246 245 246 241 241 238 242 246 264 284 289 293 288 285 281 272 272 277 290 292 281 279 284 278 280 271 262 256 252 253 254
178 168 174 213 42 244 252 219 200 210 232 222 235 242 228 235 262 253 225 222 247 259 268 276 282 290 291 285 281 275 275 272 273 277 282 288 285 281 279 266 255 255 256 249
188 172 163 170 236 271 289 243 183 198 254 231 230 248 250 292 334 291 242 217 234 247 260 265 268 273 285 291 284 280 282 278 272 271 276 280 277 275 274 262 256 254 248 257
157 163 163 168 207 242 254 240 208 142 271 253 211 227 217 125 285 271 274 261 262 268 271 279 292 307 307 306 301 286 281 277 272 273 273 275 270 265 265 261 261 255 243 257
168 178 193 199 225 259 262 237 123 164 252 269 203 213 197 208 229 256 277 282 269 278 283 285 293 297 294 300 300 286 281 274 273 274 274 276 273 265 263 266 262 245 245 276
182 179 194 180 211 251 216 137 177 223 288 193 205 210 216 232 249 260 262 261 277 295 300 300 300 300 302 303 293 288 285 284 285 278 274 273 272 270 272 260 267 248 211 241
199 193 193 198 216 244 171 187 217 202 220 247 229 235 213 231 246 258 260 257 265 273 288 292 286 300 307 306 291 284 292 292 286 288 283 280 282 279 263 242 244 244 221 226
247 193 183 244 264 253 233 244 252 230 235 254 244 225 196 227 245 253 253 255 261 271 277 284 289 295 301 305 301 287 294 295 278 276 284 280 273 281 275 259 243 239 233 230
221 182 202 246 270 288 258 237 241 251 268 277 275 232 215 217 245 242 248 253 255 264 269 260 262 275 286 297 297 295 295 292 280 277 278 283 276 272 280 274 252 245 240 236
203 190 194 228 232 214 251 253 229 234 254 255 257 265 245 224 242 248 250 254 259 265 268 271 274 277 283 290 292 293 289 274 263 276 280 279 280 274 269 277 298 286 272 273
Height
1489 1493 1495 1494 1494 1494 1496 1498 1500 1498 1496 1497 1497 1495 1490 1488 1488 1487 1487 1486 1486 1487 1489 1491 1492 1494 1495 1496 1498 1499 1500 1501 1502 1502 1503 1503 1503 1504 1505 1506 1506 1506 1506 1506
1494 1495 1492 1492 1493 1495 1496 1499 1500 1498 1497 1497 1498 1494 1488 1486 1485 1484 1484 1484 1484 1485 1486 1488 1490 1491 1492 1493 1495 1496 1497 1498 1499 1500 1500 1501 1501 1501 1502 1503 1503 1503 1503 1503
1492 1493 1491 1492 1494 1495 1497 1499 1499 1499 1498 1498 1499 1492 1487 1483 1482 1482 1481 1481 1482 1483 1483 1485 1487 1488 1490 1491 1492 1494 1495 1496 1497 1497 1498 1498 1499 1499 1499 1499 1499 1499 1499 1499
1493 1491 1491 1492 1493 1494 1496 1495 1496 1498 1501 1504 1502 1501 1487 1484 1481 1479 1479 1479 1479 1480 1481 1482 1484 1485 1487 1488 1490 1491 1492 1493 1494 1495 1495 1495 1495 1495 1495 1496 1496 1496 1496 1496
1492 1491 1491 1492 1492 1493 1495 1494 1496 1498 1501 1506 1504 1505 1489 1484 1480 1477 1476 1476 1477 1478 1479 1480 1481 1483 1484 1486 1487 1488 1489 1490 1491 1491 1492 1492 1492 1493 1493 1493 1492 1492 1493 1492
1491 1490 1490 1490 1491 1492 1494 1497 1499 1503 1506 1508 1502 1504 1491 1483 1476 1475 1474 1474 1475 1476 1477 1478 1479 1481 1482 1483 1484 1485 1486 1487 1488 1488 1489 1489 1489 1489 1489 1489 1489 1489 1489 1489
1492 1490 1489 1489 1491 1493 1494 1501 1509 1508 1514 1505 1499 1499 1487 1476 1473 1472 1472 1473 1474 1474 1475 1476 1477 1478 1479 1480 1481 1482 1483 1484 1485 1485 1486 1486 1486 1486 1486 1486 1486 1485 1485 1485
1494 1493 1489 1489 1490 1492 1494 1496 1505 1507 1507 1503 1500 1496 1482 1474 1471 1470 1471 1472 1472 1473 1474 1475 1475 1476 1477 1478 1479 1480 1480 1481 1482 1482 1482 1483 1483 1483 1483 1483 1482 1482 1482 1482
1493 1491 1488 1487 1487 1489 1493 1496 1497 1506 1511 1508 1498 1491 1479 1472 1471 1470 1470 1470 1471 1472 1473 1473 1474 1474 1475 1476 1476 1477 1477 1478 1478 1479 1479 1479 1480 1480 1480 1480 1479 1479 1479 1479
1488 1492 1489 1488 1488 1489 1490 1493 1501 1505 1504 1499 1493 1490 1480 1473 1472 1471 1470 1470 1470 1471 1472 1472 1473 1473 1473 1473 1474 1475 1475 1475 1476 1476 1476 1476 1477 1477 1477 1476 1476 1476 1476 1475
1486 1491 1491 1489 1490 1490 1492 1494 1496 1502 1503 1501 1496 1483 1471 1470 1470 1470 1470 1470 1470 1470 1471 1471 1471 1472 1472 1472 1472 1472 1472 1473 1473 1473 1473 1474 1474 1474 1474 1473 1473 1473 1472 1472
1486 1491 1494 1490 1488 1487 1488 1489 1494 1498 1501 1505 1501 1485 1468 1468 1468 1469 1470 1470 1470 1470 1470 1470 1470 1470 1470 1470 1470 1470 1470 1470 1470 1470 1470 1470 1471 1471 1470 1470 1470 1470 1469 1469
1484 1490 1493 1489 1492 1490 1489 1488 1491 1495 1501 1506 1499 1480 1469 1468 1468 1469 1469 1470 1470 1469 1469 1469 1469 1469 1468 1468 1468 1468 1468 1468 1467 1467 1467 1467 1467 1467 1467 1467 1467 1466 1466 1466
1481 1487 1488 1485 1481 1483 1487 1487 1489 1492 1496 1497 1490 1477 1470 1469 1468 1468 1469 1469 1469 1469 1468 1467 1467 1467 1467 1466 1466 1466 1465 1465 1465 1465 1464 1464 1464 1464 1464 1464 1464 1463 1463 1462
1480 1485 1486 1484 1482 1482 1482 1482 1485 1485 1483 1484 1477 1476 1468 1468 1468 1468 1468 1468 1468 1467 1467 1466 1465 1465 1464 1464 1463 1463 1463 1463 1462 1462 1461 1461 1461 1461 1461 1461 1460 1460 1460 1459
1481 1484 1485 1483 1481 1482 1480 1477 1478 1478 1478 1477 1475 1471 1465 1465 1466 1466 1466 1466 1466 1465 1465 1465 1464 1463 1462 1462 1461 1461 1460 1460 1459 1459 1459 1458 1458 1457 1457 1457 1457 1456 1456 1456
1481 1483 1483 1482 1482 1479 1476 1470 1471 1472 1470 1471 1470 1464 1463 1463 1463 1463 1463 1463 1463 1463 1463 1463 1462 1461 1461 1460 1459 1458 1458 1457 1457 1456 1456 1455 1455 1454 1454 1453 1453 1453 1452 1452
1479 1481 1483 1484 1483 1479 1464 1462 1462 1465 1464 1464 1461 1460 1460 1460 1461 1461 1461 1461 1461 1461 1461 1461 1460 1459 1459 1458 1457 1456 1455 1455 1454 1453 1453 1452 1451 1451 1451 1450 1449 1449 1449 1449
1473 1477 1482 1484 1482 1473 1463 1461 1462 1463 1461 1458 1458 1457 1458 1459 1459 1458 1458 1459 1459 1459 1459 1458 1458 1457 1456 1456 1454 1453 1452 1452 1451 1450 1450 1449 1448 1448 1447 1447 1446 1446 1445 1445
1473 1475 1480 1483 1478 1471 1459 1458 1457 1460 1460 1454 1454 1455 1456 1458 1460 1457 1456 1456 1456 1456 1456 1456 1455 1455 1454 1453 1452 1451 1450 1449 1448 1447 1447 1446 1446 1445 1444 1443 1443 1442 1442 1441
1474 1476 1478 1479 1477 1466 1458 1456 1457 1463 1457 1452 1452 1453 1454 1455 1455 1454 1454 1454 1454 1454 1453 1453 1452 1452 1451 1450 1449 1448 1447 1446 1445 1444 1444 1443 1442 1442 1441 1440 1439 1439 1438 1438
1467 1472 1475 1476 1474 1465 1455 1456 1457 1454 1451 1450 1450 1451 1452 1452 1452 1452 1452 1452 1451 1451 1451 1450 1449 1449 1448 1447 1446 1445 1444 1443 1442 1441 1440 1439 1439 1438 1437 1436 1436 1435 1435 1434
1462 1461 1462 1461 1457 1452 1451 1450 1450 1450 1450 1450 1450 1450 1450 1450 1449 1449 1449 1449 1449 1448 1448 1448 1447 1446 1445 1444 1443 1441 1440 1440 1438 1438 1437 1436 1435 1434 1434 1433 1432 1432 1431 1431
1458 1456 1458 1457 1451 1449 1448 1448 1448 1448 1448 1448 1448 1448 1448 1447 1447 1447 1447 1447 1446 1446 1446 1445 1444 1443 1442 1441 1440 1439 1437 1436 1435 1434 1433 1433 1432 1431 1430 1429 1429 1428 1428 1427
1452 1454 1455 1453 1448 1446 1445 1445 1445 1446 1446 1445 1445 1446 1446 1445 1445 1444 1444 1444 1443 1443 1442 1442 1441 1439 1438 1437 1436 1435 1434 1433 1432 1431 1430 1429 1428 1428 1427 1426 1426 1425 1425 1424
1447 1448 1449 1446 1443 1444 1442 1442 1443 1443 1443 1443 1442 1442 1442 1442 1442 1441 1441 1440 1440 1439 1439 1438 1437 1436 1435 1434 1433 1432 1431 1430 1429 1428 1427 1426 1425 1424 1424 1423 1422 1422 1422 1421